SCP
0 0 0 0 0 0 0 0 0 0 0 0 0 0 0 0 0 0 0 0 0 0 0 0 0 0 0 0 0 0 0 0 0 -0 -0 -0 -0 -0 0 0 0 0 0 0 0 0 0 0 0 0 0 1 -0 0
0 0 0 0 0 0 0 0 0 0 0 0 0 0 0 0 0 0 0 0 0 0 0 0 0 0 0 0 0 0 0 0 0 -0 0 -0 -0 -0 -0 0 0 0 0 0 0 0 0 0 0 0 0 0 -0 0
0 0 0 0 0 0 0 0 0 0 0 0 0 0 0 0 0 0 0 0 0 0 0 0 0 0 0 0 0 0 0 0 0 0 -0 -0 -0 -0 -0 -0 0 0 0 0 0 0 0 -0 0 0 0 1 0 0
0 0 0 0 0 0 0 0 0 0 0 0 0 0 0 0 0 0 0 0 0 0 0 0 0 0 0 0 0 0 0 0 0 -0 -0 -0 -0 -0 -0 -0 0 0 0 0 0 0 0 0 0 0 0 0 0 0
0 0 0 0 0 0 0 0 0 0 0 0 0 0 0 0 0 0 0 0 0 0 0 0 0 0 0 0 0 0 -0 0 0 -0 0 0 -0 -0 -0 -0 0 0 0 0 0 0 -0 0 0 0 -0 -0 -0 -0
0 0 0 0 0 0 0 0 0 0 0 0 0 0 0 0 0 0 0 0 0 0 0 0 0 0 0 0 0 0 -0 0 0 0 -0 -0 0 -0 -0 0 0 0 0 -0 0 -0 -0 0 0 -0 0 0 -0 -0
0 0 0 0 0 0 0 0 0 0 0 0 0 0 0 0 0 0 0 0 0 0 0 0 0 0 0 0 0 0 -0 -0 0 0 0 0 0 -0 -0 0 0 0 0 0 0 0 -0 0 0 0 0 0 -0 -0
0 0 0 0 0 0 0 0 0 0 0 0 0 0 0 0 0 0 0 0 0 0 0 0 0 0 0 -0 0 -0 0 -0 0 0 0 0 0 0 -0 0 0 0 0 -0 -0 0 -0 0 0 0 0 -0 -0 -0
0 0 0 0 0 0 0 0 0 0 0 0 0 0 0 0 0 0 0 0 0 0 0 0 0 0 0 0 -0 -0 0 0 0 0 0 0 0 0 0 0 0 0 0 -0 0 0 0 0 0 0 -0 -0 -0 -0
0 0 0 0 0 0 0 0 0 0 0 0 0 0 0 0 0 0 0 0 0 0 0 0 0 0 0 0 0 0 0 0 0 -0 0 0 0 0 0 0 0 0 0 0 0 0 0 0 0 0 0 0 -0 -0
0 0 0 0 0 0 0 0 0 0 0 0 0 0 0 0 0 0 0 0 0 0 0 0 0 0 0 0 0 0 -0 0 0 0 0 0 0 0 0 0 0 0 0 0 0 0 0 0 0 0 0 -0 -0 -0
0 0 0 0 0 0 0 0 0 0 0 0 0 0 0 0 0 0 0 0 0 0 0 0 0 0 0 0 0 0 -0 0 -0 0 0 0 0 0 0 0 0 0 0 0 0 0 0 0 0 0 0 0 -0 -0
0 0 0 0 0 0 0 0 0 0 0 0 0 0 0 0 0 0 0 0 0 0 0 -0 -0 -0 0 0 0 -0 -0 0 0 0 0 0 -0 0 -0 0 0 0 0 0 0 0 0 0 0 0 0 -0 -0 -0
0 0 0 0 0 0 0 0 0 0 0 0 0 0 0 0 0 0 0 0 0 0 -0 -0 -0 -0 0 0 0 0 -0 0 0 0 0 -0 -0 0 -0 0 0 -0 0 0 0 0 0 0 0 0 0 -0 0 0
0 0 0 0 0 0 0 0 0 0 0 0 0 0 0 0 0 0 0 0 0 0 -0 -0 -0 -0 -0 0 0 0 0 0 0 0 -0 -0 0 -0 0 0 0 0 -0 -0 0 0 0 0 0 0 0 0 0 0
0 0 0 0 0 0 0 0 0 0 0 0 0 0 0 0 0 0 0 0 0 0 -0 -0 -0 0 0 0 0 0 0 0 0 -0 -0 -0 -0 -0 0 0 0 0 0 0 0 0 0 0 0 0 0 0 0 0
0 0 0 0 0 0 0 0 0 0 0 0 0 0 0 0 0 0 0 0 0 0 -0 -0 0 0 0 0 0 0 0 0 -0 -0 -0 -0 -0 -0 0 0 0 0 0 0 0 0 0 0 0 0 0 0 0 0
0 0 0 0 0 0 0 0 0 0 0 0 0 0 0 -0 0 0 0 0 0 -0 -0 -0 0 -0 0 0 0 0 0 0 0 0 -0 0 -0 0 0 0 0 0 -0 0 0 0 0 0 0 0 0 0 0 0
0 0 0 0 0 0 0 0 0 0 0 0 0 0 0 0 0 -0 0 0 0 0 -0 -0 0 0 0 0 -0 0 0 0 0 0 0 0 -0 0 0 0 0 0 0 0 0 0 0 0 0 0 0 0 0 0
0 0 0 0 0 0 0 0 0 0 -0 -0 0 0 0 0 0 0 0 0 0 0 -0 0 0 0 0 0 0 0 0 0 0 0 0 0 0 0 -0 0 0 0 0 0 0 0 0 0 0 0 0 0 0 0
0 0 0 0 0 0 0 0 0 -0 -0 -0 -0 -0 -0 0 0 0 0 0 0 0 0 0 0 0 0 0 0 0 0 0 0 0 0 0 0 0 0 0 0 0 0 0 0 0 0 0 0 0 0 0 0 0
0 0 0 0 0 0 0 0 0 0 0 0 0 -0 0 0 0 0 0 -0 -0 -0 0 0 0 0 0 0 0 0 0 0 0 0 0 0 0 0 -0 0 0 0 0 0 0 0 0 0 0 0 0 0 0 0
0 0 0 0 0 0 0 0 0 -0 -0 0 0 0 0 0 0 0 -0 -0 -0 -0 -0 -0 -0 0 0 0 0 0 0 0 0 0 0 0 0 0 0 0 0 0 0 0 0 0 0 0 0 0 0 0 0 0
0 0 0 0 0 0 0 0 0 0 0 0 0 0 0 0 0 0 -0 0 0 0 0 0 -0 0 0 0 -0 0 0 0 0 0 0 0 0 0 0 0 0 0 0 0 0 0 0 0 0 0 0 0 0 0
0 0 0 0 0 0 0 0 0 0 0 0 0 0 0 0 0 -0 -0 0 0 0 0 0 0 0 0 0 0 0 0 0 0 0 0 0 0 0 0 0 0 0 0 0 0 0 0 0 0 0 0 0 0 0
0 0 0 -0 0 0 0 0 0 0 0 0 0 0 0 0 -0 0 0 0 0 0 0 0 0 0 0 0 0 0 0 0 0 0 -0 0 0 0 0 0 0 0 0 0 0 0 0 0 0 0 0 0 0 0
-0 0 0 0 0 0 0 0 0 0 0 0 0 0 0 -0 -0 -0 0 0 0 0 0 0 0 0 0 0 0 0 0 0 0 0 -0 0 0 0 0 0 0 0 0 0 0 0 0 0 0 0 0 0 0 0
0 -0 0 0 -0 0 0 0 0 0 0 0 0 0 0 0 0 0 0 0 0 0 0 -0 -0 0 0 0 0 0 0 0 0 0 0 0 0 0 0 0 0 0 0 0 0 0 0 0 0 0 0 0 0 0
-0 -0 0 0 -0 0 0 0 0 0 0 0 0 0 0 0 -0 -0 -0 -0 -0 -0 -0 -0 0 0 0 0 0 0 0 0 0 0 0 0 0 0 0 0 0 0 0 0 0 0 0 0 0 0 0 0 0 0
-0 -0 -0 -0 -0 -0 -0 -0 0 0 0 0 -0 -0 -0 -0 -0 -0 -0 -0 -0 -0 0 0 0 0 0 0 0 0 0 0 0 0 0 0 0 0 0 0 0 0 0 0 0 0 0 0 0 0 0 0 0 0
0 -0 -0 -0 -0 0 -0 0 0 0 -0 -0 -0 -0 -0 -0 -0 -0 -0 -0 -0 0 0 0 0 0 0 0 0 0 0 0 0 0 0 0 0 0 0 0 0 0 0 0 0 0 0 0 0 -0 -0 -0 -0 -0
0 -0 0 0 -0 0 0 -0 0 0 0 0 0 0 0 0 0 -0 -0 -0 -0 0 0 0 0 0 0 0 0 0 0 0 0 0 0 0 0 0 0 0 0 0 0 0 0 0 0 -0 -0 -0 -0 0 0 0
0 0 0 0 0 0 0 0 0 0 0 0 0 0 0 0 0 0 0 0 0 0 -0 0 0 0 0 0 0 0 0 0 0 0 0 0 0 0 0 0 0 0 0 0 0 0 0 0 0 0 0 0 0 0
Wind_Speed_500mb
24 23 24 25 25 22 21 20 21 21 21 22 22 21 20 16 16 17 21 30 27 20 52 69 65 49 43 28 10 30 24 7 11 5 3 5 4 2 6 16 17 9 6 11 10 4 3 18 18 7 10 51 67 61
23 23 24 25 21 19 19 18 20 20 21 22 21 19 17 13 13 17 22 20 29 35 45 64 71 70 74 67 52 22 17 19 12 6 6 8 8 3 10 7 8 7 6 8 7 6 31 55 38 13 22 67 54 69
24 23 23 21 20 20 20 19 19 20 21 23 21 17 14 15 15 20 22 24 31 41 59 41 27 35 37 38 40 27 27 31 21 23 6 6 7 4 6 9 19 14 10 4 14 8 16 21 14 42 48 37 48 71
25 23 23 21 21 21 20 20 21 22 22 22 22 17 14 14 13 17 30 24 29 25 13 28 25 63 77 58 54 59 64 40 36 41 15 6 8 14 9 13 12 10 8 4 10 15 21 15 6 43 69 27 57 74
27 27 25 26 25 24 22 20 20 21 22 22 22 19 12 16 19 19 25 27 34 32 11 41 88 18 19 43 33 63 69 64 54 17 10 8 9 5 10 7 9 10 11 8 10 6 2 21 34 49 66 69 76 83
28 28 27 26 25 24 24 22 21 21 22 22 21 15 15 17 18 18 11 7 28 45 15 7 34 59 19 19 30 30 56 69 50 15 13 13 20 10 5 7 18 27 21 16 4 28 20 39 27 54 69 81 84 83
28 27 26 26 26 24 23 22 22 21 22 21 17 17 17 20 22 23 10 5 18 11 10 13 15 15 24 29 17 23 42 45 43 21 18 21 16 12 6 15 8 13 29 30 23 30 18 10 26 57 74 80 77 73
29 30 25 25 25 24 22 21 21 21 22 20 16 19 21 24 27 40 26 30 41 20 11 6 10 16 7 9 7 6 9 26 22 14 8 10 9 12 10 33 55 44 30 3 6 5 4 16 35 57 73 79 73 71
30 29 25 25 26 25 22 20 20 21 20 17 14 17 18 16 19 20 10 11 22 23 9 10 5 8 8 8 9 11 7 5 13 7 9 11 6 14 15 32 44 35 24 11 20 17 45 45 41 71 83 84 89 81
26 26 24 25 28 25 22 19 19 18 16 13 11 11 10 11 17 22 10 9 18 19 19 14 33 19 23 28 13 11 10 6 5 10 10 7 9 57 66 68 54 23 40 15 24 35 67 68 64 75 83 79 76 81
30 27 26 28 27 24 20 20 19 14 11 8 10 10 11 14 17 12 8 11 15 10 17 19 41 24 18 10 7 11 5 7 5 5 6 6 8 16 50 53 62 40 31 35 28 40 58 82 86 83 78 74 74 75
33 31 28 23 24 24 22 19 17 14 15 12 12 20 15 11 11 9 7 8 9 8 10 10 16 35 15 22 9 12 7 4 11 13 3 6 8 13 14 24 33 39 50 29 8 40 53 62 73 79 75 75 75 76
27 32 30 25 25 23 22 20 18 14 20 25 7 10 12 13 10 11 12 7 7 9 4 18 8 9 14 27 12 7 8 9 11 5 7 5 16 11 6 18 29 14 31 27 23 45 52 68 73 76 73 71 74 79
35 26 26 26 28 24 21 19 15 13 11 10 8 9 9 10 10 10 9 9 17 12 23 22 6 8 14 6 5 6 9 3 6 6 1 4 9 16 4 2 10 21 27 32 20 60 80 76 73 74 75 73 72 75
29 31 33 30 28 25 23 17 16 18 12 10 10 10 13 24 28 20 30 41 16 16 16 13 9 10 7 8 3 6 5 7 6 5 4 17 16 22 12 6 15 22 52 35 54 80 78 72 78 82 76 70 65 67
29 26 33 29 25 26 26 23 16 19 9 11 17 10 24 19 22 13 17 8 9 14 7 4 3 6 11 6 6 10 4 7 5 6 18 21 31 39 45 13 16 26 33 34 66 80 76 82 81 79 77 70 64 64
31 31 23 20 24 32 33 28 19 16 15 13 17 37 41 32 29 34 17 8 9 7 4 6 6 12 8 5 7 5 4 5 14 23 27 30 32 25 39 23 41 34 38 71 79 78 71 67 67 74 75 73 67 63
35 27 24 22 28 31 31 30 13 14 18 27 20 32 35 36 35 36 33 23 13 8 11 5 13 8 9 6 5 7 13 18 20 30 28 28 31 19 4 4 48 46 59 77 79 76 73 72 73 74 72 70 66 61
31 28 20 20 34 24 12 18 16 10 19 30 38 51 49 47 47 40 38 36 31 16 9 3 9 6 5 9 7 17 21 18 24 40 29 13 24 19 15 16 3 44 68 72 79 82 86 82 78 76 71 67 61 55
33 29 23 20 34 17 10 12 18 15 13 12 20 39 46 47 45 48 44 35 39 16 11 8 4 30 21 34 25 27 23 28 33 38 42 21 33 20 19 15 7 18 55 65 75 80 81 78 74 70 63 61 55 52
28 30 27 33 39 33 9 9 13 15 14 17 23 30 14 25 33 44 55 48 39 26 12 23 24 41 33 33 32 24 31 28 28 41 45 40 31 26 15 7 17 32 66 68 54 66 73 75 74 63 52 53 52 53
24 24 23 26 16 14 16 18 15 10 12 18 30 33 14 13 26 35 33 37 30 35 43 45 47 49 50 46 27 31 29 34 35 28 27 36 22 15 10 5 19 48 74 70 62 72 73 71 63 56 57 56 54 49
25 31 11 19 12 14 16 20 15 9 5 7 10 5 7 10 17 28 14 20 31 39 43 46 48 46 48 46 38 30 36 42 36 26 26 30 14 15 14 4 15 35 44 45 55 78 74 67 64 61 56 55 50 42
16 13 10 16 21 10 10 10 12 9 7 5 4 8 9 11 15 9 7 31 47 44 49 45 43 54 51 46 41 37 34 33 32 25 29 15 14 21 23 8 19 26 35 45 59 63 63 70 68 63 59 52 51 47
10 12 10 10 15 11 9 6 9 5 7 7 5 8 9 10 2 5 8 24 42 44 43 41 40 41 47 47 46 44 38 33 32 30 26 18 15 10 13 15 9 23 30 42 42 48 48 54 62 63 60 54 50 50
11 13 15 19 9 10 10 7 11 14 8 7 11 11 8 4 6 10 6 20 37 43 43 38 45 49 49 50 47 46 37 31 23 20 8 7 13 9 6 9 5 20 31 29 28 35 39 55 70 63 51 49 46 46
8 11 19 21 13 15 7 16 20 5 7 9 7 7 1 6 8 10 26 31 38 40 39 37 37 37 51 43 40 39 32 32 28 18 13 12 12 17 16 17 6 13 31 26 25 26 26 49 61 52 42 37 38 33
21 13 11 17 29 27 9 5 6 8 10 16 8 5 7 10 10 10 43 30 18 27 35 35 36 37 38 39 37 32 34 33 24 22 22 23 26 23 17 5 4 18 20 25 32 37 37 42 54 58 55 51 46 36
19 23 21 15 21 16 21 14 15 24 24 14 8 11 11 30 33 33 46 42 38 41 38 42 34 27 31 29 32 27 23 23 21 17 17 15 13 15 12 9 10 19 18 17 26 26 29 40 38 40 37 37 38 22
17 32 17 13 11 14 30 35 29 37 46 58 46 44 56 66 67 50 43 43 43 38 41 42 26 27 31 23 25 18 17 16 7 16 25 26 18 10 16 14 14 17 22 26 28 30 27 33 36 40 43 33 32 33
20 36 20 20 14 33 49 48 40 43 43 46 44 41 39 39 57 53 48 40 35 40 36 23 20 28 32 33 26 36 32 24 19 17 11 15 13 18 24 18 17 21 24 26 31 36 43 42 39 43 41 34 31 25
20 28 17 11 9 30 31 22 19 18 17 23 25 31 25 31 22 27 25 18 24 26 23 17 22 21 22 23 22 22 22 24 25 23 22 14 24 28 15 17 23 31 35 36 39 40 39 40 39 34 34 32 30 26
15 24 23 9 10 11 22 23 19 12 15 20 22 26 30 20 11 11 23 16 24 17 27 36 7 15 23 17 17 19 19 18 20 27 33 34 35 31 22 24 27 37 43 39 35 31 26 29 33 35 32 40 37 29
Wind_Direction_500mb
255 264 272 280 282 277 280 283 288 297 305 310 321 324 324 318 310 249 224 224 244 267 278 277 272 263 263 269 257 298 327 0 317 329 273 249 266 112 293 318 294 281 264 178 218 164 280 306 332 214 184 151 164 165
250 261 273 278 267 273 279 282 289 298 303 306 315 315 312 309 295 265 256 246 260 267 265 282 283 272 271 283 266 252 244 308 279 306 15 310 242 144 65 282 295 294 100 271 321 226 106 261 241 147 142 160 168 155
250 257 270 267 264 267 273 277 284 293 300 304 308 303 294 294 285 277 268 265 273 286 294 281 277 298 285 283 280 236 246 240 240 250 283 283 312 117 154 245 270 250 191 272 355 344 109 161 202 98 143 145 162 165
247 255 260 266 265 266 272 280 285 291 294 297 301 291 276 279 285 277 266 271 262 271 278 285 306 296 304 281 261 253 248 252 252 279 292 256 238 193 207 208 228 230 24 284 266 21 313 343 41 161 128 184 160 162
250 251 257 265 262 264 269 277 285 289 290 293 298 289 276 256 273 278 279 268 254 244 279 293 303 314 281 295 274 242 239 250 251 256 234 226 241 253 278 314 268 213 180 136 230 74 301 309 290 187 175 163 166 162
250 248 255 262 265 260 264 271 278 282 286 287 296 283 283 260 263 287 306 339 232 235 275 294 295 302 311 285 257 251 236 234 227 232 236 230 232 207 267 258 269 231 231 234 231 330 333 329 207 191 162 162 165 167
253 251 255 257 261 260 258 267 274 277 279 280 285 284 282 259 242 236 249 58 107 248 250 285 282 281 300 305 275 251 228 223 224 234 233 246 258 213 237 257 239 276 266 276 310 323 352 2 184 172 163 159 162 160
241 247 248 252 263 260 257 263 269 272 274 273 271 279 279 270 262 264 265 265 267 292 258 264 269 287 278 295 287 327 296 213 223 224 220 207 206 217 255 248 260 254 268 165 11 205 272 231 175 163 162 159 157 157
237 241 242 245 260 258 252 259 265 268 266 266 259 269 278 251 250 282 294 258 221 219 266 252 277 283 292 348 316 339 287 245 234 212 222 180 202 225 231 248 265 268 237 194 154 167 182 199 195 164 161 160 155 155
224 234 242 249 255 249 247 256 265 266 257 265 247 242 245 249 258 276 275 200 206 212 231 248 243 248 294 301 321 326 233 233 233 234 171 208 251 246 246 247 255 249 208 220 161 126 158 170 180 168 163 162 158 158
218 232 241 242 245 244 247 250 256 256 241 213 224 233 257 280 293 216 236 205 201 230 220 241 222 231 249 196 206 221 290 282 267 229 196 240 265 252 259 245 237 249 215 186 170 156 166 177 173 164 165 164 162 163
217 227 232 243 248 240 237 240 246 233 189 208 261 286 266 219 231 222 219 230 209 243 232 215 236 211 239 209 169 199 228 195 251 159 227 261 265 278 230 248 215 200 196 185 202 172 164 174 175 171 167 167 167 166
222 229 229 230 237 235 227 230 240 237 224 245 262 232 229 178 233 219 197 206 254 220 304 354 329 266 219 222 212 183 226 231 119 188 230 258 329 21 183 214 190 190 190 189 201 154 177 177 172 170 168 172 169 167
214 223 220 216 225 225 221 225 230 228 197 212 246 233 235 207 234 203 220 222 254 326 343 343 324 65 312 290 243 236 227 312 264 255 295 285 334 24 64 21 191 207 119 129 182 171 172 173 173 176 178 175 171 170
224 235 224 221 222 220 216 219 216 208 199 230 221 229 236 244 283 296 266 254 291 9 350 338 302 187 246 271 242 333 262 244 245 281 272 4 16 17 353 325 236 223 194 184 169 170 172 174 175 175 175 176 177 178
215 208 220 221 223 213 210 208 214 201 227 235 228 241 260 289 295 300 352 42 31 8 347 355 302 298 239 210 191 227 250 230 245 237 342 4 347 325 328 319 269 223 224 184 173 170 175 177 177 174 173 176 179 181
206 217 222 216 217 210 205 207 200 213 223 229 225 230 241 273 276 288 303 326 22 52 20 349 263 238 289 209 226 223 260 300 320 326 329 336 345 337 338 267 262 245 215 179 174 173 178 178 174 171 172 178 179 185
206 202 211 210 195 186 200 202 222 237 228 236 244 229 237 242 252 270 284 272 238 171 142 213 306 232 271 290 5 325 323 350 334 335 326 330 340 4 282 294 193 189 207 182 177 176 176 172 171 171 172 171 173 177
208 196 202 224 186 191 202 207 214 269 246 246 247 243 240 249 260 265 267 272 244 220 155 151 261 255 316 293 301 308 325 318 333 351 339 345 353 349 354 349 38 161 182 180 177 177 174 177 175 172 171 173 177 180
203 201 217 215 191 213 222 220 202 236 249 243 256 252 247 248 258 261 262 249 223 202 173 201 266 300 299 304 275 301 298 312 317 324 352 20 13 14 22 41 166 172 166 164 168 170 171 170 173 172 175 178 181 184
209 217 236 230 210 216 279 258 232 236 248 237 252 266 274 258 268 252 249 253 226 215 203 214 243 291 292 284 280 268 281 293 304 313 315 326 359 6 21 59 176 171 166 162 171 174 178 177 175 176 182 184 188 189
213 217 214 210 212 212 247 239 237 293 287 267 286 279 253 243 245 253 262 256 238 233 232 245 253 260 270 272 274 261 294 298 314 320 322 341 349 6 38 162 174 173 166 177 194 186 185 182 180 183 186 184 187 188
216 184 182 188 218 219 254 225 232 226 235 259 305 252 249 229 243 243 234 248 264 260 263 261 265 283 276 282 289 294 285 296 304 302 313 331 301 325 345 195 177 171 174 188 193 189 188 189 185 181 188 191 189 186
204 199 207 195 207 246 241 229 220 222 244 272 272 280 279 239 257 213 235 247 260 266 261 265 264 268 276 278 280 285 287 301 297 299 322 313 292 327 349 306 230 222 209 199 196 196 195 189 186 188 189 191 186 187
203 210 211 216 215 224 231 218 198 201 230 226 267 260 266 295 301 262 233 252 263 263 263 258 260 265 265 271 274 277 285 305 303 308 306 264 263 301 337 354 286 229 222 219 206 204 198 198 192 190 191 192 195 193
220 215 196 200 226 209 210 213 203 210 188 211 242 246 228 215 223 264 243 266 258 260 264 279 265 255 258 262 265 271 281 293 284 262 294 320 264 258 331 345 294 196 197 195 198 192 203 209 194 183 191 201 195 196
238 248 225 221 241 242 247 234 253 158 196 231 243 213 194 241 243 246 255 258 264 277 284 292 299 283 261 269 269 271 272 277 268 274 283 267 242 281 318 340 334 185 193 187 188 173 173 193 189 183 190 195 194 192
226 234 207 221 225 241 226 211 228 228 219 222 247 241 219 208 219 348 348 337 318 297 277 288 292 273 282 265 259 269 258 251 251 277 282 278 276 249 222 241 190 166 163 166 179 179 174 176 178 180 190 203 211 197
224 215 206 242 235 227 226 208 215 216 226 251 208 220 243 260 296 324 326 321 310 328 314 289 295 281 281 251 236 243 225 214 202 230 248 236 201 198 186 180 171 192 210 197 185 199 209 200 195 193 185 180 184 167
228 208 216 234 219 229 226 223 237 239 241 242 256 267 275 279 281 288 294 301 304 302 312 299 264 229 230 199 173 182 201 193 177 238 240 243 248 232 202 178 188 196 201 208 206 198 191 196 200 193 183 175 161 206
220 198 209 218 239 245 240 237 246 250 247 246 244 255 261 280 286 275 278 288 287 290 287 265 203 218 209 203 195 200 203 223 226 214 225 224 237 189 187 194 192 191 176 175 179 174 169 176 181 174 176 192 199 201
211 197 191 212 238 266 245 227 223 217 218 220 226 229 245 242 252 277 280 277 268 249 229 193 203 217 199 200 205 205 220 227 226 219 212 196 165 154 153 181 184 176 169 164 161 164 171 179 187 194 196 208 217 216
222 179 195 242 222 212 186 191 205 206 214 188 205 204 206 204 227 295 287 273 251 250 229 190 180 232 185 181 183 170 176 187 210 221 215 214 192 189 182 175 173 178 177 177 181 184 195 202 206 213 218 212 216 219
Wind_Speed_850mb
24 23 24 25 25 22 21 20 21 21 21 22 22 21 20 16 16 17 21 30 27 20 52 69 65 49 43 28 10 30 24 7 11 5 3 5 4 2 6 16 17 9 6 11 10 4 3 18 18 7 10 51 67 61
23 23 24 25 21 19 19 18 20 20 21 22 21 19 17 13 13 17 22 20 29 35 45 64 71 70 74 67 52 22 17 19 12 6 6 8 8 3 10 7 8 7 6 8 7 6 31 55 38 13 22 67 54 69
24 23 23 21 20 20 20 19 19 20 21 23 21 17 14 15 15 20 22 24 31 41 59 41 27 35 37 38 40 27 27 31 21 23 6 6 7 4 6 9 19 14 10 4 14 8 16 21 14 42 48 37 48 71
25 23 23 21 21 21 20 20 21 22 22 22 22 17 14 14 13 17 30 24 29 25 13 28 25 63 77 58 54 59 64 40 36 41 15 6 8 14 9 13 12 10 8 4 10 15 21 15 6 43 69 27 57 74
27 27 25 26 25 24 22 20 20 21 22 22 22 19 12 16 19 19 25 27 34 32 11 41 88 18 19 43 33 63 69 64 54 17 10 8 9 5 10 7 9 10 11 8 10 6 2 21 34 49 66 69 76 83
28 28 27 26 25 24 24 22 21 21 22 22 21 15 15 17 18 18 11 7 28 45 15 7 34 59 19 19 30 30 56 69 50 15 13 13 20 10 5 7 18 27 21 16 4 28 20 39 27 54 69 81 84 83
28 27 26 26 26 24 23 22 22 21 22 21 17 17 17 20 22 23 10 5 18 11 10 13 15 15 24 29 17 23 42 45 43 21 18 21 16 12 6 15 8 13 29 30 23 30 18 10 26 57 74 80 77 73
29 30 25 25 25 24 22 21 21 21 22 20 16 19 21 24 27 40 26 30 41 20 11 6 10 16 7 9 7 6 9 26 22 14 8 10 9 12 10 33 55 44 30 3 6 5 4 16 35 57 73 79 73 71
30 29 25 25 26 25 22 20 20 21 20 17 14 17 18 16 19 20 10 11 22 23 9 10 5 8 8 8 9 11 7 5 13 7 9 11 6 14 15 32 44 35 24 11 20 17 45 45 41 71 83 84 89 81
26 26 24 25 28 25 22 19 19 18 16 13 11 11 10 11 17 22 10 9 18 19 19 14 33 19 23 28 13 11 10 6 5 10 10 7 9 57 66 68 54 23 40 15 24 35 67 68 64 75 83 79 76 81
30 27 26 28 27 24 20 20 19 14 11 8 10 10 11 14 17 12 8 11 15 10 17 19 41 24 18 10 7 11 5 7 5 5 6 6 8 16 50 53 62 40 31 35 28 40 58 82 86 83 78 74 74 75
33 31 28 23 24 24 22 19 17 14 15 12 12 20 15 11 11 9 7 8 9 8 10 10 16 35 15 22 9 12 7 4 11 13 3 6 8 13 14 24 33 39 50 29 8 40 53 62 73 79 75 75 75 76
27 32 30 25 25 23 22 20 18 14 20 25 7 10 12 13 10 11 12 7 7 9 4 18 8 9 14 27 12 7 8 9 11 5 7 5 16 11 6 18 29 14 31 27 23 45 52 68 73 76 73 71 74 79
35 26 26 26 28 24 21 19 15 13 11 10 8 9 9 10 10 10 9 9 17 12 23 22 6 8 14 6 5 6 9 3 6 6 1 4 9 16 4 2 10 21 27 32 20 60 80 76 73 74 75 73 72 75
29 31 33 30 28 25 23 17 16 18 12 10 10 10 13 24 28 20 30 41 16 16 16 13 9 10 7 8 3 6 5 7 6 5 4 17 16 22 12 6 15 22 52 35 54 80 78 72 78 82 76 70 65 67
29 26 33 29 25 26 26 23 16 19 9 11 17 10 24 19 22 13 17 8 9 14 7 4 3 6 11 6 6 10 4 7 5 6 18 21 31 39 45 13 16 26 33 34 66 80 76 82 81 79 77 70 64 64
31 31 23 20 24 32 33 28 19 16 15 13 17 37 41 32 29 34 17 8 9 7 4 6 6 12 8 5 7 5 4 5 14 23 27 30 32 25 39 23 41 34 38 71 79 78 71 67 67 74 75 73 67 63
35 27 24 22 28 31 31 30 13 14 18 27 20 32 35 36 35 36 33 23 13 8 11 5 13 8 9 6 5 7 13 18 20 30 28 28 31 19 4 4 48 46 59 77 79 76 73 72 73 74 72 70 66 61
31 28 20 20 34 24 12 18 16 10 19 30 38 51 49 47 47 40 38 36 31 16 9 3 9 6 5 9 7 17 21 18 24 40 29 13 24 19 15 16 3 44 68 72 79 82 86 82 78 76 71 67 61 55
33 29 23 20 34 17 10 12 18 15 13 12 20 39 46 47 45 48 44 35 39 16 11 8 4 30 21 34 25 27 23 28 33 38 42 21 33 20 19 15 7 18 55 65 75 80 81 78 74 70 63 61 55 52
28 30 27 33 39 33 9 9 13 15 14 17 23 30 14 25 33 44 55 48 39 26 12 23 24 41 33 33 32 24 31 28 28 41 45 40 31 26 15 7 17 32 66 68 54 66 73 75 74 63 52 53 52 53
24 24 23 26 16 14 16 18 15 10 12 18 30 33 14 13 26 35 33 37 30 35 43 45 47 49 50 46 27 31 29 34 35 28 27 36 22 15 10 5 19 48 74 70 62 72 73 71 63 56 57 56 54 49
25 31 11 19 12 14 16 20 15 9 5 7 10 5 7 10 17 28 14 20 31 39 43 46 48 46 48 46 38 30 36 42 36 26 26 30 14 15 14 4 15 35 44 45 55 78 74 67 64 61 56 55 50 42
16 13 10 16 21 10 10 10 12 9 7 5 4 8 9 11 15 9 7 31 47 44 49 45 43 54 51 46 41 37 34 33 32 25 29 15 14 21 23 8 19 26 35 45 59 63 63 70 68 63 59 52 51 47
10 12 10 10 15 11 9 6 9 5 7 7 5 8 9 10 2 5 8 24 42 44 43 41 40 41 47 47 46 44 38 33 32 30 26 18 15 10 13 15 9 23 30 42 42 48 48 54 62 63 60 54 50 50
11 13 15 19 9 10 10 7 11 14 8 7 11 11 8 4 6 10 6 20 37 43 43 38 45 49 49 50 47 46 37 31 23 20 8 7 13 9 6 9 5 20 31 29 28 35 39 55 70 63 51 49 46 46
8 11 19 21 13 15 7 16 20 5 7 9 7 7 1 6 8 10 26 31 38 40 39 37 37 37 51 43 40 39 32 32 28 18 13 12 12 17 16 17 6 13 31 26 25 26 26 49 61 52 42 37 38 33
21 13 11 17 29 27 9 5 6 8 10 16 8 5 7 10 10 10 43 30 18 27 35 35 36 37 38 39 37 32 34 33 24 22 22 23 26 23 17 5 4 18 20 25 32 37 37 42 54 58 55 51 46 36
19 23 21 15 21 16 21 14 15 24 24 14 8 11 11 30 33 33 46 42 38 41 38 42 34 27 31 29 32 27 23 23 21 17 17 15 13 15 12 9 10 19 18 17 26 26 29 40 38 40 37 37 38 22
17 32 17 13 11 14 30 35 29 37 46 58 46 44 56 66 67 50 43 43 43 38 41 42 26 27 31 23 25 18 17 16 7 16 25 26 18 10 16 14 14 17 22 26 28 30 27 33 36 40 43 33 32 33
20 36 20 20 14 33 49 48 40 43 43 46 44 41 39 39 57 53 48 40 35 40 36 23 20 28 32 33 26 36 32 24 19 17 11 15 13 18 24 18 17 21 24 26 31 36 43 42 39 43 41 34 31 25
20 28 17 11 9 30 31 22 19 18 17 23 25 31 25 31 22 27 25 18 24 26 23 17 22 21 22 23 22 22 22 24 25 23 22 14 24 28 15 17 23 31 35 36 39 40 39 40 39 34 34 32 30 26
15 24 23 9 10 11 22 23 19 12 15 20 22 26 30 20 11 11 23 16 24 17 27 36 7 15 23 17 17 19 19 18 20 27 33 34 35 31 22 24 27 37 43 39 35 31 26 29 33 35 32 40 37 29
Wind_Direction_850mb
255 264 272 280 282 277 280 283 288 297 305 310 321 324 324 318 310 249 224 224 244 267 278 277 272 263 263 269 257 298 327 0 317 329 273 249 266 112 293 318 294 281 264 178 218 164 280 306 332 214 184 151 164 165
250 261 273 278 267 273 279 282 289 298 303 306 315 315 312 309 295 265 256 246 260 267 265 282 283 272 271 283 266 252 244 308 279 306 15 310 242 144 65 282 295 294 100 271 321 226 106 261 241 147 142 160 168 155
250 257 270 267 264 267 273 277 284 293 300 304 308 303 294 294 285 277 268 265 273 286 294 281 277 298 285 283 280 236 246 240 240 250 283 283 312 117 154 245 270 250 191 272 355 344 109 161 202 98 143 145 162 165
247 255 260 266 265 266 272 280 285 291 294 297 301 291 276 279 285 277 266 271 262 271 278 285 306 296 304 281 261 253 248 252 252 279 292 256 238 193 207 208 228 230 24 284 266 21 313 343 41 161 128 184 160 162
250 251 257 265 262 264 269 277 285 289 290 293 298 289 276 256 273 278 279 268 254 244 279 293 303 314 281 295 274 242 239 250 251 256 234 226 241 253 278 314 268 213 180 136 230 74 301 309 290 187 175 163 166 162
250 248 255 262 265 260 264 271 278 282 286 287 296 283 283 260 263 287 306 339 232 235 275 294 295 302 311 285 257 251 236 234 227 232 236 230 232 207 267 258 269 231 231 234 231 330 333 329 207 191 162 162 165 167
253 251 255 257 261 260 258 267 274 277 279 280 285 284 282 259 242 236 249 58 107 248 250 285 282 281 300 305 275 251 228 223 224 234 233 246 258 213 237 257 239 276 266 276 310 323 352 2 184 172 163 159 162 160
241 247 248 252 263 260 257 263 269 272 274 273 271 279 279 270 262 264 265 265 267 292 258 264 269 287 278 295 287 327 296 213 223 224 220 207 206 217 255 248 260 254 268 165 11 205 272 231 175 163 162 159 157 157
237 241 242 245 260 258 252 259 265 268 266 266 259 269 278 251 250 282 294 258 221 219 266 252 277 283 292 348 316 339 287 245 234 212 222 180 202 225 231 248 265 268 237 194 154 167 182 199 195 164 161 160 155 155
224 234 242 249 255 249 247 256 265 266 257 265 247 242 245 249 258 276 275 200 206 212 231 248 243 248 294 301 321 326 233 233 233 234 171 208 251 246 246 247 255 249 208 220 161 126 158 170 180 168 163 162 158 158
218 232 241 242 245 244 247 250 256 256 241 213 224 233 257 280 293 216 236 205 201 230 220 241 222 231 249 196 206 221 290 282 267 229 196 240 265 252 259 245 237 249 215 186 170 156 166 177 173 164 165 164 162 163
217 227 232 243 248 240 237 240 246 233 189 208 261 286 266 219 231 222 219 230 209 243 232 215 236 211 239 209 169 199 228 195 251 159 227 261 265 278 230 248 215 200 196 185 202 172 164 174 175 171 167 167 167 166
222 229 229 230 237 235 227 230 240 237 224 245 262 232 229 178 233 219 197 206 254 220 304 354 329 266 219 222 212 183 226 231 119 188 230 258 329 21 183 214 190 190 190 189 201 154 177 177 172 170 168 172 169 167
214 223 220 216 225 225 221 225 230 228 197 212 246 233 235 207 234 203 220 222 254 326 343 343 324 65 312 290 243 236 227 312 264 255 295 285 334 24 64 21 191 207 119 129 182 171 172 173 173 176 178 175 171 170
224 235 224 221 222 220 216 219 216 208 199 230 221 229 236 244 283 296 266 254 291 9 350 338 302 187 246 271 242 333 262 244 245 281 272 4 16 17 353 325 236 223 194 184 169 170 172 174 175 175 175 176 177 178
215 208 220 221 223 213 210 208 214 201 227 235 228 241 260 289 295 300 352 42 31 8 347 355 302 298 239 210 191 227 250 230 245 237 342 4 347 325 328 319 269 223 224 184 173 170 175 177 177 174 173 176 179 181
206 217 222 216 217 210 205 207 200 213 223 229 225 230 241 273 276 288 303 326 22 52 20 349 263 238 289 209 226 223 260 300 320 326 329 336 345 337 338 267 262 245 215 179 174 173 178 178 174 171 172 178 179 185
206 202 211 210 195 186 200 202 222 237 228 236 244 229 237 242 252 270 284 272 238 171 142 213 306 232 271 290 5 325 323 350 334 335 326 330 340 4 282 294 193 189 207 182 177 176 176 172 171 171 172 171 173 177
208 196 202 224 186 191 202 207 214 269 246 246 247 243 240 249 260 265 267 272 244 220 155 151 261 255 316 293 301 308 325 318 333 351 339 345 353 349 354 349 38 161 182 180 177 177 174 177 175 172 171 173 177 180
203 201 217 215 191 213 222 220 202 236 249 243 256 252 247 248 258 261 262 249 223 202 173 201 266 300 299 304 275 301 298 312 317 324 352 20 13 14 22 41 166 172 166 164 168 170 171 170 173 172 175 178 181 184
209 217 236 230 210 216 279 258 232 236 248 237 252 266 274 258 268 252 249 253 226 215 203 214 243 291 292 284 280 268 281 293 304 313 315 326 359 6 21 59 176 171 166 162 171 174 178 177 175 176 182 184 188 189
213 217 214 210 212 212 247 239 237 293 287 267 286 279 253 243 245 253 262 256 238 233 232 245 253 260 270 272 274 261 294 298 314 320 322 341 349 6 38 162 174 173 166 177 194 186 185 182 180 183 186 184 187 188
216 184 182 188 218 219 254 225 232 226 235 259 305 252 249 229 243 243 234 248 264 260 263 261 265 283 276 282 289 294 285 296 304 302 313 331 301 325 345 195 177 171 174 188 193 189 188 189 185 181 188 191 189 186
204 199 207 195 207 246 241 229 220 222 244 272 272 280 279 239 257 213 235 247 260 266 261 265 264 268 276 278 280 285 287 301 297 299 322 313 292 327 349 306 230 222 209 199 196 196 195 189 186 188 189 191 186 187
203 210 211 216 215 224 231 218 198 201 230 226 267 260 266 295 301 262 233 252 263 263 263 258 260 265 265 271 274 277 285 305 303 308 306 264 263 301 337 354 286 229 222 219 206 204 198 198 192 190 191 192 195 193
220 215 196 200 226 209 210 213 203 210 188 211 242 246 228 215 223 264 243 266 258 260 264 279 265 255 258 262 265 271 281 293 284 262 294 320 264 258 331 345 294 196 197 195 198 192 203 209 194 183 191 201 195 196
238 248 225 221 241 242 247 234 253 158 196 231 243 213 194 241 243 246 255 258 264 277 284 292 299 283 261 269 269 271 272 277 268 274 283 267 242 281 318 340 334 185 193 187 188 173 173 193 189 183 190 195 194 192
226 234 207 221 225 241 226 211 228 228 219 222 247 241 219 208 219 348 348 337 318 297 277 288 292 273 282 265 259 269 258 251 251 277 282 278 276 249 222 241 190 166 163 166 179 179 174 176 178 180 190 203 211 197
224 215 206 242 235 227 226 208 215 216 226 251 208 220 243 260 296 324 326 321 310 328 314 289 295 281 281 251 236 243 225 214 202 230 248 236 201 198 186 180 171 192 210 197 185 199 209 200 195 193 185 180 184 167
228 208 216 234 219 229 226 223 237 239 241 242 256 267 275 279 281 288 294 301 304 302 312 299 264 229 230 199 173 182 201 193 177 238 240 243 248 232 202 178 188 196 201 208 206 198 191 196 200 193 183 175 161 206
220 198 209 218 239 245 240 237 246 250 247 246 244 255 261 280 286 275 278 288 287 290 287 265 203 218 209 203 195 200 203 223 226 214 225 224 237 189 187 194 192 191 176 175 179 174 169 176 181 174 176 192 199 201
211 197 191 212 238 266 245 227 223 217 218 220 226 229 245 242 252 277 280 277 268 249 229 193 203 217 199 200 205 205 220 227 226 219 212 196 165 154 153 181 184 176 169 164 161 164 171 179 187 194 196 208 217 216
222 179 195 242 222 212 186 191 205 206 214 188 205 204 206 204 227 295 287 273 251 250 229 190 180 232 185 181 183 170 176 187 210 221 215 214 192 189 182 175 173 178 177 177 181 184 195 202 206 213 218 212 216 219